User: anonymous   Login
Location: Cimarron National Grasslands
(37.1250°N, 101.7500°W)
Time: 05:14:05
(UTC-05:00)
Language:

Ariane Rocket - Orbit

View from above orbital plane
View from above orbital plane
View from above satellite
View from above satellite

Ground track
Ground track

The orbit data is extracted from the following two-line orbital elements,

1 23561U 95021B   16238.85589508  .00000041  00000-0  28962-4 0  9998
2 23561  98.7755 227.5100 0008025  57.6917   3.7711 14.37758357118815
Epoch (UTC): 25 August 2016 20:32:29
Eccentricity: 0.0008025
inclination: 98.7755°
perigee height: 760 km
apogee height: 771 km
right ascension of ascending node: 227.5100°
argument of perigee: 57.6917°
revolutions per day: 14.37758357
mean anomaly at epoch: 3.7711°
orbit number at epoch: 11881

The dashed part of the orbit path shows where the satellite is in the earth's shadow,  

DLR